CZ-6A DEB

Satellite information

Favourite Embed

Satellite Type and Status

DEBRISIN ORBIT

Key statistics

Satellite CZ-6A DEB at a glance.

Uptime

1129

Days in orbit

Revolutions

≈ 14.3

Per day

Orbit

SSO

Sun Synchronous Orbit

Inclination

98.6

Latest

Satellite identification and parameters

Extended collection of information and parameters for CZ-6A DEB.

Object identification

Identified? True

Debris? True

Object name: CZ-6A DEB

International designator: 2022-151AET

Object number (NORAD): 56619

Object ID (CCSDS): 56619

Country: PEOPLES REPUBLIC OF CHINA (PRC)

Current information (Y/N): Y

RCS size: SMALL

Orbital parameters

Period: 100.673 minutes

Inclination: 98.5629 deg

SMA: 7168.631 km

Apoapsis: 843.685 km

Periapsis: 737.307 km

RAAN: 342.3915 deg

Eccentricy: 0.00741973

Argument of periapsis: 244.1375 deg

Mean anomaly: 115.2144 deg

Mean motion: 14.30370127 rev/day

Mean motion (dot): 0.00000737 rev/day2

B* drag term: 0.00029164956 1/REarth

Two-line elements (TLE)

Creation date: Dec. 9, 2025, 5:08 a.m.

Reference frame: TEME

Reference center: EARTH

Epoch: Dec. 8, 2025, 5:46 p.m. UTC

TLE line 0: 0 CZ-6A DEB

TLE line 1: 1 56619U 22151AET 25342.74040361 .00000737 00000-0 29165-3 0 9992

TLE line 2: 2 56619 98.5629 342.3915 0074197 244.1375 115.2144 14.30370127137321

Live tracking on map

Real-time ground track for satellite CZ-6A DEB.

In-orbit conjunctions

A list of the most updated potential collisions computed for object CZ-6A DEB.

Target Orbit TCA Probability of collision Miss distance Type
COSMOS 2263 LEO 2024-09-23 05:45:34 0.0007161264 594.0 (m) PAYLOAD

Associated space launch

Chinese satellite reported for atmospheric/ocean/environmental/spatial parameter research purposes, details TBD.

CZ-6A DEB was lifted into orbit during the mission ‘Long March 6A | Yunhai 3’, on board a Long March 6A space rocket.

The launch took place on Nov. 11, 2022, 10:52 p.m. from Launch Complex 9A.

For more information about the launch, click the button.

Launch to space Long March 6A | Yunhai 3
Long March 6A | Yunhai 3

Agency: N/A

Status: Launch Successful

Launch date: Nov. 11, 2022, 10:52 p.m. UTC

Rocket: Long March 6A

Launch pad: Launch Complex 9A

Location: Taiyuan Satellite Launch Center, People's Republic of China

...

Latest news about this satellite

There are no fresh news available about this satellite. Check back as we update our databases every day.


Newsletter sign-up

Weekly statistics, charts and insights to help you stay on top of the space industry.